Ohio State University, OH

4:47 PM EDT on April 24, 2018 (GMT -0400)
Ohio State University

Weather History for KOSU - December, 2012

Change the Weather History Date:

Thursday, December 27, 2012

  Actual Average Record
Temperature  
Mean Temperature 27 °F -  
Max Temperature 28 °F 34 °F 66 °F (2008)
Min Temperature 26 °F 22 °F 1 °F (2017)
Degree Days  
Heating Degree Days 38    
Moisture  
Dew Point 23 °F    
Average Humidity 85    
Maximum Humidity 88    
Minimum Humidity 80    
Precipitation  
Precipitation 0.00 in - - ()
Sea Level Pressure  
Sea Level Pressure 30.06 in    
Wind  
Wind Speed 11 mph (WNW)    
Max Wind Speed 15 mph    
Max Gust Speed 23 mph    
Visibility 9 miles    
Events      
Averages and records for this station are not official NWS values.
T = Trace of Precipitation, MM = Missing Value Source: NWS Daily Summary

Daily Weather History Graph

Daily Weather History Graph

Search for Another Location

Airport or City:

Astronomy

Dec. 27, 2012 Rise Set
Actual Time 7:53 AM EST 5:13 PM EST
Civil Twilight 7:22 AM EST 5:44 PM EST
Nautical Twilight 6:48 AM EST 6:18 PM EST
Astronomical Twilight 6:15 AM EST 6:51 PM EST
Moon 4:56 PM EST (12/27) 7:03 AM EST (12/27)
Length of Visible Light 10h 21m
Length of Day
9h 20m
Full, 100% of the Moon is Illuminated
Dec 27
Full
Dec 28
Full
Jan 4
Last Quarter
Jan 11
New
Jan 18
First Quarter

Hourly Weather History & Observations

Time (EST) Temp. Windchill Dew Point Humidity Pressure Visibility Wind Dir Wind Speed Gust Speed Precip Events Conditions
12:53 AM 26.1 °F 14.5 °F 23.0 °F 88% 29.84 in 10.0 mi NW 13.8 mph - N/A   Overcast
1:53 AM 26.1 °F 15.0 °F 23.0 °F 88% 29.86 in 10.0 mi NW 12.7 mph - N/A   Overcast
2:53 AM 26.1 °F 14.0 °F 23.0 °F 88% 29.90 in 10.0 mi WNW 15.0 mph - N/A   Overcast
3:53 AM 26.1 °F 14.5 °F 23.0 °F 88% 29.93 in 10.0 mi WNW 13.8 mph - N/A   Overcast
4:53 AM 27.0 °F 15.6 °F 23.0 °F 85% 29.94 in 10.0 mi WNW 13.8 mph - N/A   Overcast
5:53 AM 27.0 °F 15.2 °F 23.0 °F 85% 29.98 in 10.0 mi WNW 15.0 mph 23.0 mph N/A   Overcast
6:10 AM 26.6 °F 16.2 °F 23.0 °F 86% 29.96 in 10.0 mi West 11.5 mph - N/A   Overcast
6:53 AM 26.1 °F 15.0 °F 23.0 °F 88% 30.01 in 10.0 mi West 12.7 mph - N/A   Overcast
7:53 AM 26.1 °F 15.6 °F 23.0 °F 88% 30.04 in 10.0 mi WNW 11.5 mph - N/A   Overcast
8:53 AM 26.1 °F 15.0 °F 23.0 °F 88% 30.06 in 10.0 mi WNW 12.7 mph - N/A   Overcast
9:53 AM 26.1 °F 16.8 °F 23.0 °F 88% 30.10 in 8.0 mi WNW 9.2 mph - N/A   Overcast
10:53 AM 27.0 °F 16.7 °F 23.0 °F 85% 30.11 in 10.0 mi WNW 11.5 mph - N/A   Overcast
11:00 AM 28.4 °F 19.7 °F 23.0 °F 80% 30.07 in 10.0 mi WNW 9.2 mph - N/A   Overcast
11:53 AM 28.0 °F 18.6 °F 24.1 °F 85% 30.10 in 10.0 mi NW 10.4 mph - N/A   Overcast
12:00 PM 28.4 °F 19.7 °F 24.8 °F 86% 30.07 in 10.0 mi WNW 9.2 mph - N/A   Overcast
12:53 PM 28.9 °F 19.2 °F 24.1 °F 82% 30.11 in 10.0 mi WNW 11.5 mph - N/A   Overcast
1:53 PM 28.9 °F 21.1 °F 24.1 °F 82% 30.10 in 10.0 mi WNW 8.1 mph - N/A   Overcast
2:53 PM 28.9 °F 21.1 °F 24.1 °F 82% 30.11 in 10.0 mi West 8.1 mph - N/A   Overcast
3:53 PM 28.0 °F 19.3 °F 23.0 °F 81% 30.12 in 10.0 mi West 9.2 mph - N/A   Overcast
4:53 PM 28.0 °F 20.0 °F 23.0 °F 81% 30.14 in 10.0 mi WNW 8.1 mph - N/A   Overcast
5:53 PM 27.0 °F 21.6 °F 23.0 °F 85% 30.14 in 10.0 mi West 4.6 mph - N/A   Overcast
7:18 PM 26.6 °F 21.2 °F 21.2 °F 80% 30.14 in 9.0 mi West 4.6 mph - N/A   Overcast
7:53 PM 26.1 °F 21.9 °F 23.0 °F 88% 30.19 in 8.0 mi West 3.5 mph - N/A   Overcast
8:53 PM 27.0 °F - 23.0 °F 85% 30.19 in 7.0 mi Calm Calm - N/A   Overcast
9:53 PM 27.0 °F - 23.0 °F 85% 30.19 in 7.0 mi Calm Calm - N/A   Overcast
11:53 PM 26.1 °F - 23.0 °F 88% 30.17 in 6.0 mi Calm Calm - N/A   Overcast